contact:dominique.lefevre@mio.osupytheas.fr, maurice.libes@osupytheas.fr, didier.mallarino@osupytheas.fr
Project:EMSO http://www.emso-fr.org/EMSO-France
Depth: 2436.0 m
Title:EMSO Ligure Ouest : Data MII capteur MICROCAT
DateTime_Computer,Latitude,Longitude,Temperature,Conductivity,Pressure,DateTime_Instrument
DateTime_Computer,Latitude,Longitude,degC,S m-1,dbar,DateTime_Instrument
2021-06-23T00:02:11Z,42.805,6.029,13.2998,4.60000,2470.38,2021-6-23T02:03:25Z
2021-06-23T00:05:14Z,42.805,6.029,13.2996,4.60001,2470.366,2021-6-23T02:06:28Z
2021-06-23T00:08:17Z,42.805,6.029,13.2993,4.60001,2470.39,2021-6-23T02:09:31Z
2021-06-23T00:11:20Z,42.805,6.029,13.2994,4.60001,2470.343,2021-6-23T02:12:34Z
2021-06-23T00:14:23Z,42.805,6.029,13.2993,4.60004,2470.39,2021-6-23T02:15:37Z
2021-06-23T00:17:26Z,42.805,6.029,13.2995,4.60001,2470.39,2021-6-23T02:18:40Z
2021-06-23T00:20:29Z,42.805,6.029,13.2996,4.60001,2470.366,2021-6-23T02:21:44Z
2021-06-23T00:23:33Z,42.805,6.029,13.2993,4.60001,2470.39,2021-6-23T02:24:47Z
2021-06-23T00:26:36Z,42.805,6.029,13.2993,4.60000,2470.366,2021-6-23T02:27:50Z
2021-06-23T00:29:39Z,42.805,6.029,13.2994,4.60000,2470.38,2021-6-23T02:30:53Z
2021-06-23T00:32:42Z,42.805,6.029,13.2993,4.60000,2470.366,2021-6-23T02:33:56Z
2021-06-23T00:35:45Z,42.805,6.029,13.2991,4.60001,2470.404,2021-6-23T02:36:59Z
2021-06-23T00:38:48Z,42.805,6.029,13.2993,4.60001,2470.38,2021-6-23T02:40:02Z
2021-06-23T00:41:51Z,42.805,6.029,13.2994,4.60001,2470.404,2021-6-23T02:43:05Z
2021-06-23T00:44:54Z,42.805,6.029,13.2993,4.60001,2470.39,2021-6-23T02:46:09Z
2021-06-23T00:47:58Z,42.805,6.029,13.2993,4.60000,2470.357,2021-6-23T02:49:12Z
2021-06-23T00:51:01Z,42.805,6.029,13.2991,4.60000,2470.39,2021-6-23T02:52:15Z
2021-06-23T00:54:04Z,42.805,6.029,13.2997,4.60001,2470.404,2021-6-23T02:55:18Z
2021-06-23T00:57:07Z,42.805,6.029,13.2994,4.60001,2470.366,2021-6-23T02:58:21Z
2021-06-23T01:00:10Z,42.805,6.029,13.2996,4.60001,2470.39,2021-6-23T03:01:24Z
2021-06-23T01:03:13Z,42.805,6.029,13.2993,4.60000,2470.427,2021-6-23T03:04:27Z
2021-06-23T01:06:16Z,42.805,6.029,13.2993,4.60000,2470.404,2021-6-23T03:07:30Z
2021-06-23T01:09:19Z,42.805,6.029,13.2996,4.60000,2470.39,2021-6-23T03:10:34Z
2021-06-23T01:12:22Z,42.805,6.029,13.2997,4.60000,2470.39,2021-6-23T03:13:37Z
2021-06-23T01:15:26Z,42.805,6.029,13.2996,4.60001,2470.39,2021-6-23T03:16:40Z
2021-06-23T01:18:29Z,42.805,6.029,13.2993,4.60001,2470.39,2021-6-23T03:19:43Z
2021-06-23T01:21:32Z,42.805,6.029,13.2992,4.60001,2470.404,2021-6-23T03:22:46Z
2021-06-23T01:24:35Z,42.805,6.029,13.2995,4.60001,2470.38,2021-6-23T03:25:49Z
2021-06-23T01:27:38Z,42.805,6.029,13.2996,4.60001,2470.38,2021-6-23T03:28:52Z
2021-06-23T01:30:41Z,42.805,6.029,13.2993,4.60001,2470.38,2021-6-23T03:31:55Z
2021-06-23T01:33:44Z,42.805,6.029,13.2995,4.60001,2470.413,2021-6-23T03:34:59Z
2021-06-23T01:36:48Z,42.805,6.029,13.2990,4.60001,2470.376,2021-6-23T03:38:02Z
2021-06-23T01:39:51Z,42.805,6.029,13.2992,4.60000,2470.38,2021-6-23T03:41:05Z
2021-06-23T01:42:54Z,42.805,6.029,13.2996,4.60000,2470.413,2021-6-23T03:44:08Z
2021-06-23T01:45:57Z,42.805,6.029,13.2992,4.60001,2470.413,2021-6-23T03:47:11Z
2021-06-23T01:49:00Z,42.805,6.029,13.2996,4.60001,2470.413,2021-6-23T03:50:14Z
2021-06-23T01:52:03Z,42.805,6.029,13.2995,4.60000,2470.413,2021-6-23T03:53:17Z
2021-06-23T01:55:06Z,42.805,6.029,13.2996,4.60000,2470.427,2021-6-23T03:56:20Z
2021-06-23T01:58:09Z,42.805,6.029,13.2995,4.60000,2470.45,2021-6-23T03:59:24Z
2021-06-23T02:01:12Z,42.805,6.029,13.2995,4.60001,2470.404,2021-6-23T04:02:27Z
2021-06-23T02:04:16Z,42.805,6.029,13.2995,4.60000,2470.413,2021-6-23T04:05:30Z
2021-06-23T02:07:19Z,42.805,6.029,13.2995,4.60001,2470.413,2021-6-23T04:08:33Z
2021-06-23T02:10:22Z,42.805,6.029,13.2995,4.60000,2470.413,2021-6-23T04:11:36Z
2021-06-23T02:13:25Z,42.805,6.029,13.2994,4.60000,2470.413,2021-6-23T04:14:39Z
2021-06-23T02:16:28Z,42.805,6.029,13.2994,4.60000,2470.427,2021-6-23T04:17:42Z
2021-06-23T02:19:31Z,42.805,6.029,13.2993,4.60000,2470.413,2021-6-23T04:20:45Z
2021-06-23T02:22:34Z,42.805,6.029,13.2994,4.60000,2470.427,2021-6-23T04:23:48Z
2021-06-23T02:25:37Z,42.805,6.029,13.2995,4.60001,2470.413,2021-6-23T04:26:52Z
2021-06-23T02:28:41Z,42.805,6.029,13.2993,4.60000,2470.46,2021-6-23T04:29:55Z
2021-06-23T02:31:44Z,42.805,6.029,13.2993,4.59999,2470.427,2021-6-23T04:32:58Z
2021-06-23T02:34:47Z,42.805,6.029,13.2994,4.60001,2470.437,2021-6-23T04:36:01Z
2021-06-23T02:37:50Z,42.805,6.029,13.2996,4.60001,2470.413,2021-6-23T04:39:04Z
2021-06-23T02:40:53Z,42.805,6.029,13.2997,4.60001,2470.413,2021-6-23T04:42:07Z
2021-06-23T02:43:56Z,42.805,6.029,13.2993,4.60001,2470.437,2021-6-23T04:45:10Z
2021-06-23T02:46:59Z,42.805,6.029,13.2993,4.59999,2470.437,2021-6-23T04:48:13Z
2021-06-23T02:50:02Z,42.805,6.029,13.2994,4.60000,2470.413,2021-6-23T04:51:17Z
2021-06-23T02:53:06Z,42.805,6.029,13.2990,4.60001,2470.474,2021-6-23T04:54:20Z
2021-06-23T02:56:09Z,42.805,6.029,13.2993,4.60001,2470.46,2021-6-23T04:57:23Z
2021-06-23T02:59:12Z,42.805,6.029,13.2995,4.60005,2470.46,2021-6-23T05:00:26Z
2021-06-23T03:02:15Z,42.805,6.029,13.2992,4.60001,2470.45,2021-6-23T05:03:29Z
2021-06-23T03:05:18Z,42.805,6.029,13.2996,4.59999,2470.413,2021-6-23T05:06:32Z
2021-06-23T03:08:21Z,42.805,6.029,13.2994,4.60002,2470.437,2021-6-23T05:09:35Z
2021-06-23T03:11:24Z,42.805,6.029,13.2994,4.59999,2470.45,2021-6-23T05:12:38Z
2021-06-23T03:14:27Z,42.805,6.029,13.2994,4.60000,2470.413,2021-6-23T05:15:42Z
2021-06-23T03:17:31Z,42.805,6.029,13.2994,4.60000,2470.474,2021-6-23T05:18:45Z
2021-06-23T03:20:34Z,42.805,6.029,13.2993,4.60001,2470.437,2021-6-23T05:21:48Z
2021-06-23T03:23:37Z,42.805,6.029,13.2996,4.60001,2470.46,2021-6-23T05:24:51Z
2021-06-23T03:26:40Z,42.805,6.029,13.2993,4.60000,2470.437,2021-6-23T05:27:54Z
2021-06-23T03:29:43Z,42.805,6.029,13.2994,4.59999,2470.46,2021-6-23T05:30:57Z
2021-06-23T03:32:46Z,42.805,6.029,13.2995,4.60000,2470.437,2021-6-23T05:34:00Z
2021-06-23T03:35:49Z,42.805,6.029,13.2993,4.60001,2470.474,2021-6-23T05:37:03Z
2021-06-23T03:38:52Z,42.805,6.029,13.2992,4.60001,2470.46,2021-6-23T05:40:07Z
2021-06-23T03:41:56Z,42.805,6.029,13.2996,4.60000,2470.507,2021-6-23T05:43:10Z
2021-06-23T03:44:59Z,42.805,6.029,13.2993,4.60001,2470.45,2021-6-23T05:46:13Z
2021-06-23T03:48:02Z,42.805,6.029,13.2996,4.60001,2470.497,2021-6-23T05:49:16Z
2021-06-23T03:51:05Z,42.805,6.029,13.2994,4.60000,2470.46,2021-6-23T05:52:19Z
2021-06-23T03:54:08Z,42.805,6.029,13.2996,4.59999,2470.47,2021-6-23T05:55:22Z
2021-06-23T03:57:11Z,42.805,6.029,13.2996,4.60000,2470.497,2021-6-23T05:58:25Z
2021-06-23T04:00:14Z,42.805,6.029,13.2994,4.59999,2470.52,2021-6-23T06:01:28Z
2021-06-23T04:03:17Z,42.805,6.029,13.2993,4.60000,2470.507,2021-6-23T06:04:32Z
2021-06-23T04:06:21Z,42.805,6.029,13.2993,4.60000,2470.507,2021-6-23T06:07:35Z
2021-06-23T04:09:24Z,42.805,6.029,13.2993,4.59999,2470.507,2021-6-23T06:10:38Z
2021-06-23T04:12:27Z,42.805,6.029,13.2992,4.60000,2470.474,2021-6-23T06:13:41Z
2021-06-23T04:15:30Z,42.805,6.029,13.2991,4.60000,2470.483,2021-6-23T06:16:44Z
2021-06-23T04:18:33Z,42.805,6.029,13.2995,4.60000,2470.497,2021-6-23T06:19:47Z
2021-06-23T04:21:36Z,42.805,6.029,13.2991,4.60000,2470.483,2021-6-23T06:22:50Z
2021-06-23T04:24:39Z,42.805,6.029,13.2996,4.60000,2470.497,2021-6-23T06:25:53Z
2021-06-23T04:27:42Z,42.805,6.029,13.2996,4.59999,2470.507,2021-6-23T06:28:57Z
2021-06-23T04:30:46Z,42.805,6.029,13.2992,4.59999,2470.52,2021-6-23T06:32:00Z
2021-06-23T04:33:49Z,42.805,6.029,13.2992,4.59999,2470.53,2021-6-23T06:35:03Z
2021-06-23T04:36:52Z,42.805,6.029,13.2994,4.60002,2470.507,2021-6-23T06:38:06Z
2021-06-23T04:39:55Z,42.805,6.029,13.2990,4.60001,2470.52,2021-6-23T06:41:09Z
2021-06-23T04:42:58Z,42.805,6.029,13.2991,4.60000,2470.483,2021-6-23T06:44:12Z
2021-06-23T04:46:01Z,42.805,6.029,13.2991,4.60000,2470.544,2021-6-23T06:47:15Z
2021-06-23T04:49:04Z,42.805,6.029,13.2996,4.60000,2470.52,2021-6-23T06:50:18Z
2021-06-23T04:52:07Z,42.805,6.029,13.2996,4.60000,2470.53,2021-6-23T06:53:22Z
2021-06-23T04:55:10Z,42.805,6.029,13.2993,4.60001,2470.507,2021-6-23T06:56:25Z
2021-06-23T04:58:14Z,42.805,6.029,13.2995,4.60000,2470.507,2021-6-23T06:59:28Z
2021-06-23T05:01:17Z,42.805,6.029,13.2992,4.60000,2470.52,2021-6-23T07:02:31Z
2021-06-23T05:04:20Z,42.805,6.029,13.2992,4.60000,2470.53,2021-6-23T07:05:34Z
2021-06-23T05:07:23Z,42.805,6.029,13.2994,4.60000,2470.52,2021-6-23T07:08:37Z
2021-06-23T05:10:26Z,42.805,6.029,13.2991,4.60001,2470.544,2021-6-23T07:11:40Z
2021-06-23T05:13:29Z,42.805,6.029,13.2997,4.60002,2470.544,2021-6-23T07:14:43Z
2021-06-23T05:16:32Z,42.805,6.029,13.2993,4.60000,2470.53,2021-6-23T07:17:46Z
2021-06-23T05:19:35Z,42.805,6.029,13.2994,4.60000,2470.53,2021-6-23T07:20:50Z
2021-06-23T05:22:39Z,42.805,6.029,13.2995,4.60000,2470.507,2021-6-23T07:23:53Z
2021-06-23T05:25:42Z,42.805,6.029,13.2992,4.60000,2470.52,2021-6-23T07:26:56Z
2021-06-23T05:28:45Z,42.805,6.029,13.2996,4.60000,2470.52,2021-6-23T07:29:59Z
2021-06-23T05:31:48Z,42.805,6.029,13.2993,4.60000,2470.544,2021-6-23T07:33:02Z
2021-06-23T05:34:51Z,42.805,6.029,13.2999,4.60000,2470.507,2021-6-23T07:36:05Z
2021-06-23T05:37:54Z,42.805,6.029,13.2990,4.59999,2470.493,2021-6-23T07:39:08Z
2021-06-23T05:40:57Z,42.805,6.029,13.2994,4.59999,2470.53,2021-6-23T07:42:11Z
2021-06-23T05:44:00Z,42.805,6.029,13.2990,4.60000,2470.53,2021-6-23T07:45:15Z
2021-06-23T05:47:04Z,42.805,6.029,13.2997,4.60000,2470.567,2021-6-23T07:48:18Z
2021-06-23T05:50:07Z,42.805,6.029,13.2992,4.60002,2470.53,2021-6-23T07:51:21Z
2021-06-23T05:53:10Z,42.805,6.029,13.2995,4.60000,2470.507,2021-6-23T07:54:24Z
2021-06-23T05:56:13Z,42.805,6.029,13.2993,4.59999,2470.53,2021-6-23T07:57:27Z
2021-06-23T05:59:16Z,42.805,6.029,13.2994,4.60000,2470.52,2021-6-23T08:00:30Z
2021-06-23T06:02:19Z,42.805,6.029,13.2992,4.59999,2470.544,2021-6-23T08:03:33Z
2021-06-23T06:05:22Z,42.805,6.029,13.2992,4.60001,2470.483,2021-6-23T08:06:36Z
2021-06-23T06:08:25Z,42.805,6.029,13.2991,4.60000,2470.52,2021-6-23T08:09:40Z
2021-06-23T06:11:29Z,42.805,6.029,13.2993,4.60003,2470.544,2021-6-23T08:12:43Z
2021-06-23T06:14:32Z,42.805,6.029,13.2992,4.59999,2470.507,2021-6-23T08:15:46Z
2021-06-23T06:17:35Z,42.805,6.029,13.2993,4.59999,2470.507,2021-6-23T08:18:49Z
2021-06-23T06:20:38Z,42.805,6.029,13.2993,4.60003,2470.53,2021-6-23T08:21:52Z
2021-06-23T06:23:41Z,42.805,6.029,13.2993,4.60000,2470.483,2021-6-23T08:24:55Z
2021-06-23T06:26:44Z,42.805,6.029,13.2994,4.59999,2470.507,2021-6-23T08:27:58Z
2021-06-23T06:29:47Z,42.805,6.029,13.2996,4.60001,2470.544,2021-6-23T08:31:01Z
2021-06-23T06:32:50Z,42.805,6.029,13.2996,4.60000,2470.544,2021-6-23T08:34:05Z
2021-06-23T06:35:54Z,42.805,6.029,13.2995,4.59999,2470.483,2021-6-23T08:37:08Z
2021-06-23T06:38:57Z,42.805,6.029,13.2993,4.60000,2470.52,2021-6-23T08:40:11Z
2021-06-23T06:42:00Z,42.805,6.029,13.2991,4.59999,2470.483,2021-6-23T08:43:14Z
2021-06-23T06:45:03Z,42.805,6.029,13.2993,4.59999,2470.483,2021-6-23T08:46:17Z
2021-06-23T06:48:06Z,42.805,6.029,13.2993,4.59999,2470.474,2021-6-23T08:49:20Z
2021-06-23T06:51:09Z,42.805,6.029,13.2994,4.60001,2470.52,2021-6-23T08:52:23Z
2021-06-23T06:54:12Z,42.805,6.029,13.2990,4.59999,2470.507,2021-6-23T08:55:26Z
2021-06-23T06:57:15Z,42.805,6.029,13.2993,4.59999,2470.483,2021-6-23T08:58:30Z
2021-06-23T07:00:19Z,42.805,6.029,13.2994,4.60000,2470.483,2021-6-23T09:01:33Z
2021-06-23T07:03:22Z,42.805,6.029,13.2994,4.60001,2470.52,2021-6-23T09:04:36Z
2021-06-23T07:06:25Z,42.805,6.029,13.2995,4.59999,2470.483,2021-6-23T09:07:39Z
2021-06-23T07:09:28Z,42.805,6.029,13.2991,4.60002,2470.45,2021-6-23T09:10:42Z
2021-06-23T07:12:31Z,42.805,6.029,13.2992,4.59999,2470.483,2021-6-23T09:13:45Z
2021-06-23T07:15:34Z,42.805,6.029,13.2994,4.60000,2470.46,2021-6-23T09:16:48Z
2021-06-23T07:18:37Z,42.805,6.029,13.2994,4.59999,2470.483,2021-6-23T09:19:51Z
2021-06-23T07:21:40Z,42.805,6.029,13.2991,4.60000,2470.483,2021-6-23T09:22:55Z
2021-06-23T07:24:43Z,42.805,6.029,13.2991,4.59999,2470.46,2021-6-23T09:25:58Z
2021-06-23T07:27:47Z,42.805,6.029,13.2992,4.59999,2470.497,2021-6-23T09:29:01Z
2021-06-23T07:30:50Z,42.805,6.029,13.2994,4.59999,2470.46,2021-6-23T09:32:04Z
2021-06-23T07:33:53Z,42.805,6.029,13.2996,4.60000,2470.507,2021-6-23T09:35:07Z
2021-06-23T07:36:56Z,42.805,6.029,13.2993,4.60000,2470.46,2021-6-23T09:38:10Z
2021-06-23T07:39:59Z,42.805,6.029,13.2993,4.59999,2470.47,2021-6-23T09:41:13Z
2021-06-23T07:43:02Z,42.805,6.029,13.2991,4.60000,2470.497,2021-6-23T09:44:16Z
2021-06-23T07:46:05Z,42.805,6.029,13.2991,4.59999,2470.46,2021-6-23T09:47:20Z
2021-06-23T07:49:08Z,42.805,6.029,13.2993,4.59999,2470.474,2021-6-23T09:50:23Z
2021-06-23T07:52:12Z,42.805,6.029,13.2995,4.59999,2470.46,2021-6-23T09:53:26Z
2021-06-23T07:55:15Z,42.805,6.029,13.2993,4.59999,2470.474,2021-6-23T09:56:29Z
2021-06-23T07:58:18Z,42.805,6.029,13.2993,4.59999,2470.483,2021-6-23T09:59:32Z
2021-06-23T08:01:21Z,42.805,6.029,13.2996,4.59999,2470.45,2021-6-23T10:02:35Z
2021-06-23T08:04:24Z,42.805,6.029,13.2993,4.59999,2470.474,2021-6-23T10:05:38Z
2021-06-23T08:07:27Z,42.805,6.029,13.2990,4.60000,2470.45,2021-6-23T10:08:41Z
2021-06-23T08:10:30Z,42.805,6.029,13.2993,4.60001,2470.474,2021-6-23T10:11:45Z
2021-06-23T08:13:33Z,42.805,6.029,13.2991,4.59999,2470.413,2021-6-23T10:14:48Z
2021-06-23T08:16:37Z,42.805,6.029,13.2991,4.59999,2470.437,2021-6-23T10:17:51Z
2021-06-23T08:19:40Z,42.805,6.029,13.2995,4.60002,2470.413,2021-6-23T10:20:54Z
2021-06-23T08:22:43Z,42.805,6.029,13.2992,4.60000,2470.413,2021-6-23T10:23:57Z
2021-06-23T08:25:46Z,42.805,6.029,13.2991,4.59999,2470.413,2021-6-23T10:27:00Z
2021-06-23T08:28:49Z,42.805,6.029,13.2993,4.59999,2470.413,2021-6-23T10:30:03Z
2021-06-23T08:31:52Z,42.805,6.029,13.2993,4.59999,2470.45,2021-6-23T10:33:06Z
2021-06-23T08:34:55Z,42.805,6.029,13.2993,4.60000,2470.376,2021-6-23T10:36:10Z
2021-06-23T08:37:59Z,42.805,6.029,13.2994,4.59999,2470.427,2021-6-23T10:39:13Z
2021-06-23T08:41:02Z,42.805,6.029,13.2991,4.59999,2470.413,2021-6-23T10:42:16Z
2021-06-23T08:44:05Z,42.805,6.029,13.2993,4.59999,2470.437,2021-6-23T10:45:19Z
2021-06-23T08:47:08Z,42.805,6.029,13.2995,4.59999,2470.427,2021-6-23T10:48:22Z
2021-06-23T08:50:11Z,42.805,6.029,13.2996,4.59999,2470.39,2021-6-23T10:51:25Z
2021-06-23T08:53:14Z,42.805,6.029,13.2993,4.60001,2470.404,2021-6-23T10:54:28Z
2021-06-23T08:56:17Z,42.805,6.029,13.2993,4.59999,2470.413,2021-6-23T10:57:31Z
2021-06-23T08:59:20Z,42.805,6.029,13.2991,4.59999,2470.413,2021-6-23T11:00:35Z
2021-06-23T09:02:24Z,42.805,6.029,13.2993,4.59999,2470.413,2021-6-23T11:03:38Z
2021-06-23T09:05:27Z,42.805,6.029,13.2990,4.59999,2470.366,2021-6-23T11:06:41Z
2021-06-23T09:08:30Z,42.805,6.029,13.2991,4.60000,2470.39,2021-6-23T11:09:44Z
2021-06-23T09:11:33Z,42.805,6.029,13.2992,4.59999,2470.39,2021-6-23T11:12:47Z
2021-06-23T09:14:36Z,42.805,6.029,13.2993,4.59998,2470.404,2021-6-23T11:15:50Z
2021-06-23T09:17:39Z,42.805,6.029,13.2989,4.59999,2470.366,2021-6-23T11:18:53Z
2021-06-23T09:20:42Z,42.805,6.029,13.2993,4.59999,2470.404,2021-6-23T11:21:56Z
2021-06-23T09:23:45Z,42.805,6.029,13.2991,4.59998,2470.404,2021-6-23T11:25:00Z
2021-06-23T09:26:49Z,42.805,6.029,13.2990,4.59999,2470.404,2021-6-23T11:28:03Z
2021-06-23T09:29:52Z,42.805,6.029,13.2993,4.59999,2470.404,2021-6-23T11:31:06Z
2021-06-23T09:32:55Z,42.805,6.029,13.2993,4.60000,2470.404,2021-6-23T11:34:09Z
2021-06-23T09:35:58Z,42.805,6.029,13.2991,4.59999,2470.38,2021-6-23T11:37:12Z
2021-06-23T09:39:01Z,42.805,6.029,13.2991,4.59999,2470.38,2021-6-23T11:40:15Z
2021-06-23T09:42:04Z,42.805,6.029,13.2991,4.60001,2470.39,2021-6-23T11:43:18Z
2021-06-23T09:45:07Z,42.805,6.029,13.2991,4.59998,2470.39,2021-6-23T11:46:22Z
2021-06-23T09:48:10Z,42.805,6.029,13.2991,4.59997,2470.366,2021-6-23T11:49:25Z
2021-06-23T09:51:14Z,42.805,6.029,13.2991,4.59998,2470.366,2021-6-23T11:52:28Z
2021-06-23T09:54:17Z,42.805,6.029,13.2994,4.60001,2470.366,2021-6-23T11:55:31Z
2021-06-23T09:57:20Z,42.805,6.029,13.2991,4.60002,2470.366,2021-6-23T11:58:34Z
2021-06-23T10:00:23Z,42.805,6.029,13.2992,4.59999,2470.343,2021-6-23T12:01:37Z
2021-06-23T10:03:26Z,42.805,6.029,13.2991,4.59999,2470.357,2021-6-23T12:04:40Z
2021-06-23T10:06:29Z,42.805,6.029,13.2992,4.59999,2470.343,2021-6-23T12:07:43Z
2021-06-23T10:09:32Z,42.805,6.029,13.2990,4.59999,2470.334,2021-6-23T12:10:47Z
2021-06-23T10:12:35Z,42.805,6.029,13.2993,4.59998,2470.343,2021-6-23T12:13:50Z
2021-06-23T10:15:39Z,42.805,6.029,13.2991,4.59999,2470.343,2021-6-23T12:16:53Z
2021-06-23T10:18:42Z,42.805,6.029,13.2993,4.59999,2470.32,2021-6-23T12:19:56Z
2021-06-23T10:21:45Z,42.805,6.029,13.2990,4.59997,2470.357,2021-6-23T12:22:59Z
2021-06-23T10:24:48Z,42.805,6.029,13.2994,4.59998,2470.38,2021-6-23T12:26:02Z
2021-06-23T10:27:51Z,42.805,6.029,13.2986,4.59998,2470.38,2021-6-23T12:29:05Z
2021-06-23T10:30:54Z,42.805,6.029,13.2991,4.59998,2470.297,2021-6-23T12:32:08Z
2021-06-23T10:33:57Z,42.805,6.029,13.2993,4.59998,2470.32,2021-6-23T12:35:12Z
2021-06-23T10:37:01Z,42.805,6.029,13.2991,4.59999,2470.343,2021-6-23T12:38:15Z
2021-06-23T10:40:04Z,42.805,6.029,13.2990,4.59998,2470.366,2021-6-23T12:41:18Z
2021-06-23T10:43:07Z,42.805,6.029,13.2993,4.59998,2470.343,2021-6-23T12:44:21Z
2021-06-23T10:46:10Z,42.805,6.029,13.2990,4.60002,2470.343,2021-6-23T12:47:24Z
2021-06-23T10:49:13Z,42.805,6.029,13.2993,4.59998,2470.357,2021-6-23T12:50:27Z
2021-06-23T10:52:16Z,42.805,6.029,13.2992,4.59998,2470.32,2021-6-23T12:53:30Z
2021-06-23T10:55:19Z,42.805,6.029,13.2992,4.59998,2470.334,2021-6-23T12:56:33Z
2021-06-23T10:58:22Z,42.805,6.029,13.2991,4.59997,2470.32,2021-6-23T12:59:37Z
2021-06-23T11:01:26Z,42.805,6.029,13.2991,4.59999,2470.357,2021-6-23T13:02:40Z
2021-06-23T11:04:29Z,42.805,6.029,13.2989,4.59998,2470.31,2021-6-23T13:05:43Z
2021-06-23T11:07:32Z,42.805,6.029,13.2993,4.59998,2470.297,2021-6-23T13:08:46Z
2021-06-23T11:10:35Z,42.805,6.029,13.2995,4.59999,2470.31,2021-6-23T13:11:49Z
2021-06-23T11:13:38Z,42.805,6.029,13.2994,4.59997,2470.32,2021-6-23T13:14:52Z
2021-06-23T11:16:41Z,42.805,6.029,13.2992,4.59998,2470.31,2021-6-23T13:17:55Z
2021-06-23T11:19:44Z,42.805,6.029,13.2991,4.59998,2470.32,2021-6-23T13:20:58Z
2021-06-23T11:22:47Z,42.805,6.029,13.2988,4.59999,2470.334,2021-6-23T13:24:02Z
2021-06-23T11:25:51Z,42.805,6.029,13.2993,4.59997,2470.334,2021-6-23T13:27:05Z
2021-06-23T11:28:54Z,42.805,6.029,13.2991,4.59997,2470.31,2021-6-23T13:30:08Z
2021-06-23T11:31:57Z,42.805,6.029,13.2990,4.59998,2470.297,2021-6-23T13:33:11Z
2021-06-23T11:35:00Z,42.805,6.029,13.2993,4.59997,2470.334,2021-6-23T13:36:14Z
2021-06-23T11:38:03Z,42.805,6.029,13.2992,4.59996,2470.297,2021-6-23T13:39:17Z
2021-06-23T11:41:06Z,42.805,6.029,13.2990,4.59998,2470.287,2021-6-23T13:42:20Z
2021-06-23T11:44:09Z,42.805,6.029,13.2990,4.59997,2470.31,2021-6-23T13:45:23Z
2021-06-23T11:47:12Z,42.805,6.029,13.2991,4.59997,2470.334,2021-6-23T13:48:27Z
2021-06-23T11:50:16Z,42.805,6.029,13.2989,4.59997,2470.297,2021-6-23T13:51:30Z
2021-06-23T11:53:19Z,42.805,6.029,13.2991,4.59998,2470.273,2021-6-23T13:54:33Z
2021-06-23T11:56:22Z,42.805,6.029,13.2993,4.59998,2470.297,2021-6-23T13:57:36Z
2021-06-23T11:59:25Z,42.805,6.029,13.2991,4.59999,2470.31,2021-6-23T14:00:39Z
2021-06-23T12:02:28Z,42.805,6.029,13.2990,4.59996,2470.334,2021-6-23T14:03:42Z
2021-06-23T12:05:31Z,42.805,6.029,13.2989,4.59997,2470.31,2021-6-23T14:06:45Z
2021-06-23T12:08:34Z,42.805,6.029,13.2991,4.59997,2470.32,2021-6-23T14:09:48Z
2021-06-23T12:11:37Z,42.805,6.029,13.2993,4.59998,2470.297,2021-6-23T14:12:52Z
2021-06-23T12:14:41Z,42.805,6.029,13.2990,4.59997,2470.31,2021-6-23T14:15:55Z
2021-06-23T12:17:44Z,42.805,6.029,13.2993,4.59997,2470.32,2021-6-23T14:18:58Z
2021-06-23T12:20:47Z,42.805,6.029,13.2993,4.59997,2470.32,2021-6-23T14:22:01Z
2021-06-23T12:23:50Z,42.805,6.029,13.2994,4.59998,2470.287,2021-6-23T14:25:04Z
2021-06-23T12:26:53Z,42.805,6.029,13.2990,4.59999,2470.25,2021-6-23T14:28:07Z
2021-06-23T12:29:56Z,42.805,6.029,13.2991,4.59999,2470.334,2021-6-23T14:31:10Z
2021-06-23T12:32:59Z,42.805,6.029,13.2990,4.59997,2470.273,2021-6-23T14:34:13Z
2021-06-23T12:36:02Z,42.805,6.029,13.2990,4.59997,2470.273,2021-6-23T14:37:17Z
2021-06-23T12:39:06Z,42.805,6.029,13.2991,4.59997,2470.287,2021-6-23T14:40:20Z
2021-06-23T12:42:09Z,42.805,6.029,13.2990,4.59997,2470.273,2021-6-23T14:43:23Z
2021-06-23T12:45:12Z,42.805,6.029,13.2992,4.59997,2470.297,2021-6-23T14:46:26Z
2021-06-23T12:48:15Z,42.805,6.029,13.2991,4.59997,2470.297,2021-6-23T14:49:29Z
2021-06-23T12:51:18Z,42.805,6.029,13.2991,4.59997,2470.287,2021-6-23T14:52:32Z
2021-06-23T12:54:21Z,42.805,6.029,13.2992,4.59999,2470.357,2021-6-23T14:55:35Z
2021-06-23T12:57:24Z,42.805,6.029,13.2991,4.59999,2470.32,2021-6-23T14:58:39Z
2021-06-23T13:00:27Z,42.805,6.029,13.2993,4.59998,2470.297,2021-6-23T15:01:42Z
2021-06-23T13:03:31Z,42.805,6.029,13.2990,4.59997,2470.287,2021-6-23T15:04:45Z
2021-06-23T13:06:34Z,42.805,6.029,13.2992,4.59997,2470.297,2021-6-23T15:07:48Z
2021-06-23T13:09:37Z,42.805,6.029,13.2993,4.59998,2470.297,2021-6-23T15:10:51Z
2021-06-23T13:12:40Z,42.805,6.029,13.2993,4.59996,2470.32,2021-6-23T15:13:54Z
2021-06-23T13:15:43Z,42.805,6.029,13.2991,4.59997,2470.297,2021-6-23T15:16:57Z
2021-06-23T13:18:46Z,42.805,6.029,13.2994,4.59997,2470.297,2021-6-23T15:20:00Z
2021-06-23T13:21:49Z,42.805,6.029,13.2995,4.59997,2470.297,2021-6-23T15:23:04Z
2021-06-23T13:24:52Z,42.805,6.029,13.2991,4.59997,2470.32,2021-6-23T15:26:07Z
2021-06-23T13:27:56Z,42.805,6.029,13.2991,4.59997,2470.32,2021-6-23T15:29:10Z
2021-06-23T13:30:59Z,42.805,6.029,13.2990,4.59997,2470.32,2021-6-23T15:32:13Z
2021-06-23T13:34:02Z,42.805,6.029,13.2991,4.59997,2470.32,2021-6-23T15:35:16Z
2021-06-23T13:37:05Z,42.805,6.029,13.2993,4.59997,2470.32,2021-6-23T15:38:19Z
2021-06-23T13:40:08Z,42.805,6.029,13.2991,4.59996,2470.343,2021-6-23T15:41:22Z
2021-06-23T13:43:11Z,42.805,6.029,13.2991,4.59997,2470.297,2021-6-23T15:44:25Z
2021-06-23T13:46:14Z,42.805,6.029,13.2993,4.59997,2470.343,2021-6-23T15:47:29Z
2021-06-23T13:49:18Z,42.805,6.029,13.2991,4.59997,2470.343,2021-6-23T15:50:32Z
2021-06-23T13:52:21Z,42.805,6.029,13.2987,4.59996,2470.32,2021-6-23T15:53:35Z
2021-06-23T13:55:24Z,42.805,6.029,13.2989,4.59997,2470.32,2021-6-23T15:56:38Z
2021-06-23T13:58:27Z,42.805,6.029,13.2988,4.59997,2470.32,2021-6-23T15:59:41Z
2021-06-23T14:01:30Z,42.805,6.029,13.2991,4.59998,2470.357,2021-6-23T16:02:44Z
2021-06-23T14:04:33Z,42.805,6.029,13.2994,4.59997,2470.38,2021-6-23T16:05:47Z
2021-06-23T14:07:36Z,42.805,6.029,13.2993,4.59997,2470.343,2021-6-23T16:08:51Z
2021-06-23T14:10:39Z,42.805,6.029,13.2993,4.59998,2470.357,2021-6-23T16:11:54Z
2021-06-23T14:13:43Z,42.805,6.029,13.2991,4.59997,2470.32,2021-6-23T16:14:57Z
2021-06-23T14:16:46Z,42.805,6.029,13.2991,4.59998,2470.357,2021-6-23T16:18:00Z
2021-06-23T14:19:49Z,42.805,6.029,13.2989,4.59998,2470.343,2021-6-23T16:21:03Z
2021-06-23T14:22:52Z,42.805,6.029,13.2993,4.59997,2470.33,2021-6-23T16:24:06Z
2021-06-23T14:25:55Z,42.805,6.029,13.2990,4.59997,2470.38,2021-6-23T16:27:09Z
2021-06-23T14:28:58Z,42.805,6.029,13.2991,4.59998,2470.357,2021-6-23T16:30:12Z
2021-06-23T14:32:01Z,42.805,6.029,13.2993,4.59997,2470.38,2021-6-23T16:33:16Z
2021-06-23T14:35:04Z,42.805,6.029,13.2995,4.59998,2470.366,2021-6-23T16:36:19Z
2021-06-23T14:38:08Z,42.805,6.029,13.2992,4.59998,2470.38,2021-6-23T16:39:22Z
2021-06-23T14:41:11Z,42.805,6.029,13.2989,4.59998,2470.366,2021-6-23T16:42:25Z
2021-06-23T14:44:14Z,42.805,6.029,13.2991,4.59997,2470.404,2021-6-23T16:45:28Z
2021-06-23T14:47:17Z,42.805,6.029,13.2992,4.59998,2470.366,2021-6-23T16:48:31Z
2021-06-23T14:50:20Z,42.805,6.029,13.2991,4.59998,2470.366,2021-6-23T16:51:34Z
2021-06-23T14:53:23Z,42.805,6.029,13.2991,4.59997,2470.366,2021-6-23T16:54:37Z
2021-06-23T14:56:26Z,42.805,6.029,13.2991,4.59997,2470.427,2021-6-23T16:57:41Z
2021-06-23T14:59:30Z,42.805,6.029,13.2991,4.59998,2470.427,2021-6-23T17:00:44Z
2021-06-23T15:02:33Z,42.805,6.029,13.2990,4.59998,2470.427,2021-6-23T17:03:47Z
2021-06-23T15:05:36Z,42.805,6.029,13.2991,4.59998,2470.39,2021-6-23T17:06:50Z
2021-06-23T15:08:39Z,42.805,6.029,13.2990,4.59999,2470.427,2021-6-23T17:09:53Z
2021-06-23T15:11:42Z,42.805,6.029,13.2991,4.59999,2470.413,2021-6-23T17:12:56Z
2021-06-23T15:14:45Z,42.805,6.029,13.2991,4.59999,2470.413,2021-6-23T17:15:59Z